Vernal, UT

8:34 PM MST on November 11, 2019 (GMT -0700)
Vernal

Weather History for KVEL - June, 2019

Change the Weather History Date:

Monday, June 3, 2019

  Actual Average Record
Temperature  
Mean Temperature 62 °F 62 °F  
Max Temperature 77 °F 76 °F 93 °F (1972)
Min Temperature 46 °F 48 °F 25 °F (1943)
Degree Days  
Heating Degree Days 4 4  
Month to date heating degree days 7 14  
Since 1 June heating degree days 7 14  
Since 1 July heating degree days 7488 7162  
Cooling Degree Days 0 1  
Month to date cooling degree days 0 3  
Year to date cooling degree days 1 12  
Since 1 June cooling degree days 0 3  
Growing Degree Days 12 (Base 50)    
Moisture  
Dew Point 40 °F    
Average Humidity 45    
Maximum Humidity 71    
Minimum Humidity 25    
Precipitation  
Precipitation 0.00 in 0.03 in 0.85 in (1945)
Month to date precipitation 0.00 0.09  
Year to date precipitation 7.42 3.50  
Sea Level Pressure  
Sea Level Pressure 29.87 in    
Wind  
Wind Speed 5 mph ()    
Max Wind Speed 17 mph    
Max Gust Speed 24 mph    
Visibility 10.0 miles    
Events      
T = Trace of Precipitation, MM = Missing Value Source: Averaged Metar Reports

Daily Weather History Graph

Daily Weather History Graph

Search for Another Location

Airport or City:

Astronomy

Jun. 03, 2019 Rise Set
Actual Time 5:49 AM MDT 8:43 PM MDT
Civil Twilight 5:16 AM MDT 9:16 PM MDT
Nautical Twilight 4:35 AM MDT 9:57 PM MDT
Astronomical Twilight 3:48 AM MDT 10:45 PM MDT
Moon 6:12 AM MDT (6/3) 9:11 PM MDT (6/3)
Length of Visible Light 15h 59m
Length of Day
14h 54m
New Moon, 0% of the Moon is Illuminated
Jun 3
New Moon
Jun 10
First Quarter
Jun 17
Full
Jun 25
Last Quarter
Jul 2
New

Hourly Weather History & Observations

Time (MDT) Temp. Dew Point Humidity Pressure Visibility Wind Dir Wind Speed Gust Speed Precip Events Conditions
12:53 AM 61.0 °F 39.0 °F 44% 29.87 in 10.0 mi NNE 11.5 mph - N/A   Mostly Cloudy
1:53 AM 57.9 °F 39.9 °F 51% 29.87 in 10.0 mi NE 8.1 mph - N/A   Clear
2:53 AM 53.1 °F 41.0 °F 64% 29.88 in 10.0 mi North 5.8 mph - N/A   Clear
3:53 AM 52.0 °F 39.9 °F 63% 29.88 in 10.0 mi Calm Calm - N/A   Clear
4:53 AM 48.0 °F 39.0 °F 71% 29.90 in 10.0 mi West 4.6 mph - N/A   Clear
5:53 AM 48.9 °F 39.0 °F 69% 29.88 in 10.0 mi NNW 8.1 mph - N/A   Partly Cloudy
7:53 AM 60.1 °F 39.0 °F 46% 29.87 in 10.0 mi Calm Calm - N/A   Clear
8:53 AM 63.0 °F 39.9 °F 43% 29.89 in 10.0 mi Variable 3.5 mph - N/A   Clear
9:53 AM 66.0 °F 42.1 °F 42% 29.89 in 10.0 mi Calm Calm - N/A   Partly Cloudy
10:53 AM 66.9 °F 42.1 °F 40% 29.89 in 10.0 mi SW 3.5 mph - N/A   Clear
11:53 AM 71.1 °F 44.1 °F 38% 29.87 in 10.0 mi South 3.5 mph - N/A   Scattered Clouds
12:53 PM 71.1 °F 44.1 °F 38% 29.86 in 10.0 mi SSW 3.5 mph - N/A   Clear
1:53 PM 73.9 °F 43.0 °F 33% 29.84 in 10.0 mi Calm Calm - N/A   Clear
2:53 PM 75.0 °F 41.0 °F 29% 29.84 in 10.0 mi WSW 8.1 mph - N/A   Clear
3:53 PM 73.9 °F 41.0 °F 30% 29.85 in 10.0 mi West 11.5 mph - N/A   Clear
4:53 PM 73.0 °F 36.0 °F 26% 29.86 in 10.0 mi WNW 10.4 mph 21.9 mph N/A   Clear
5:53 PM 72.0 °F 35.1 °F 26% 29.86 in 10.0 mi West 8.1 mph 20.7 mph N/A   Clear
6:53 PM 72.0 °F 39.0 °F 30% 29.84 in 10.0 mi West 5.8 mph - N/A   Clear
7:53 PM 69.1 °F 39.0 °F 33% 29.84 in 10.0 mi Calm Calm - N/A   Clear
8:53 PM 61.0 °F 41.0 °F 48% 29.86 in 10.0 mi North - - N/A   Clear
9:53 PM 57.0 °F 44.1 °F 62% 29.89 in 10.0 mi West 3.5 mph - N/A   Clear
10:53 PM 55.0 °F 41.0 °F 59% 29.92 in 10.0 mi WNW 5.8 mph - N/A   Clear
11:53 PM 54.0 °F 37.9 °F 55% 29.91 in 10.0 mi West 3.5 mph - N/A   Clear